Tracking 30743 objects as of 20-Jun-2025
HD Live streaming from Space Station
objects crossing your sky now

SL-8 DEB *

Track SL-8 DEB * now!
10-day predictions


NORAD ID: 18501
Int'l Code: 1978-019E
Perigee: 644.2 km
Apogee: 656.3 km
Inclination: 74.1 °
Period: 97.6 minutes
Semi major axis: 7021 km
RCS: 0.0081 m2 (small)
Launch date: February 17, 1978
Source: Commonwealth of Independent States (former USSR) (CIS)
Launch site: PLESETSK MISSILE AND SPACE COMPLEX (PKMTR)

Note: This is SATELLITE DEBRIS
Your satellite tracking list
Your tracking list is empty




NASA's NSSDC Master Catalog

Two Line Element Set (TLE):
1 18501U 78019E   25170.29637574  .00003455  00000-0  51021-3 0  9997
2 18501  74.0520 124.7960 0008568 355.0677 155.8592 14.75646881134221
Source of the keplerian elements: AFSPC